FENGYUN 2H

Last updated on Tue Sep 22 2026 00:02:53 GMT+0000 (Coordinated Universal Time)

1 43491U 18050A 26264.57608441 -.00000132 00000+0 00000+0 0 9995 2 43491 3.2720 77.8557 0002510 146.8456 62.4801 1.00272236 30409
UTC large
Height (km)
Speed (km/s)
/
Latitude / Longitude
Inclination (degrees)
Orbital Period (minutes)
Azimuth
Elevation
Range (km)
Doppler Factor

Next 0 passes for location: London (51.5072 / 0.1276)

No passes found over London.
FENGYUN 2H